This is the latest recevied weather packets stored in our database for station/object DJ9MA-10. If no packets are shown the sender has not sent any weather packets the latest 10 day(s).
| Time | Temp. | Humidity | Pressure | Rain* | Wind** | Luminosity | Snow |
|---|---|---|---|---|---|---|---|
| 1777220909 | 21.11° C | 45% | 968 hPa | - | - | - | - |
| 1777220008 | 22.22° C | 43% | 968.1 hPa | - | - | - | - |
| 1777219108 | 21.67° C | 42% | 967.9 hPa | - | - | - | - |
| 1777218208 | 22.78° C | 40% | 968 hPa | - | - | - | - |
| 1777217308 | 22.22° C | 39% | 967.9 hPa | - | - | - | - |
| 1777216408 | 22.22° C | 39% | 968 hPa | - | - | - | - |
| 1777215508 | 22.22° C | 40% | 968.1 hPa | - | - | - | - |
| 1777214608 | 22.78° C | 39% | 968.1 hPa | - | - | - | - |
| 1777213708 | 23.89° C | 39% | 968.1 hPa | - | - | - | - |
| 1777212808 | 24.44° C | 39% | 968 hPa | - | - | - | - |
| 1777211908 | 24.44° C | 39% | 968.3 hPa | - | - | - | - |
| 1777211008 | 23.89° C | 38% | 968.3 hPa | - | - | - | - |
| 1777210108 | 23.89° C | 40% | 968.4 hPa | - | - | - | - |
| 1777209208 | 22.78° C | 39% | 968.4 hPa | - | - | - | - |
| 1777208308 | 22.78° C | 41% | 968.6 hPa | - | - | - | - |
| 1777207407 | 22.22° C | 40% | 968.7 hPa | - | - | - | - |
| 1777206507 | 22.78° C | 43% | 968.8 hPa | - | - | - | - |
| 1777205608 | 22.78° C | 38% | 968.8 hPa | - | - | - | - |
| 1777204707 | 22.78° C | 41% | 968.9 hPa | - | - | - | - |
| 1777203807 | 21.67° C | 41% | 969 hPa | - | - | - | - |
| 1777202907 | 22.78° C | 42% | 969.1 hPa | - | - | - | - |
| 1777202007 | 23.33° C | 41% | 969.2 hPa | - | - | - | - |
| 1777201107 | 23.33° C | 44% | 969.3 hPa | - | - | - | - |
| 1777200207 | 22.78° C | 41% | 969.4 hPa | - | - | - | - |
| 1777199307 | 22.78° C | 40% | 969.6 hPa | - | - | - | - |
* Rain since midnight (hover to see other rain measurements)
** Current wind speed in m/s (hover to see current wind gust speed)